Regional Weather Roundup
Issued by NWS

Home | Current Version | Previous Version | Text Only | Print | Product List | Glossary On
Versions: 1 2 3 4 5 6 7 8 9 10 11 12 13 14 15 16 17 18 19 20 21 22 23 24 25 26 27 28 29 30 31 32 33 34 35 36 37 38 39 40 41 42 43 44 45 46 47 48 49 50
000
ASUS44 KOUN 211610
RWROK

WEATHER ROUNDUP FOR OKLAHOMA
NATIONAL WEATHER SERVICE NORMAN OK
1100 AM CDT FRI JUL 21 2017

NOTE: "FAIR" INDICATES FEW OR NO CLOUDS BELOW 12,000 FEET WITH NO
      SIGNIFICANT WEATHER AND/OR OBSTRUCTIONS TO VISIBILITY.

OKZ001>007-009>012-014-015-017-211700-
NORTHWEST OKLAHOMA AND THE PANHANDLE

CITY           SKY/WX    TMP DP  RH WIND       PRES   REMARKS
GAGE           SUNNY     95  58  28 SW16G24   29.99F HX  94
GUYMON         SUNNY     95  58  28 SW22      29.98F HX  94
ENID/WOODRING  MOSUNNY   97  68  38 S14       29.94F HX 101
$$

OKZ016-021>023-033>039-044-045-211700-
SOUTHWEST OKLAHOMA

CITY           SKY/WX    TMP DP  RH WIND       PRES   REMARKS
LAWTON/REGL    SUNNY     92  69  47 SW8       30.00S HX  97
LAWTON/FT SILL MOSUNNY   91  66  43 S8        29.99S HX  94
FREDERICK      SUNNY     93  65  39 SW13      29.97F HX  95
CLINTON        SUNNY     93  60  33 SW15G21   30.01S HX  93
HOBART         SUNNY     94  63  35 SW13      30.01S HX  95
ALTUS AFB      SUNNY     92  63  38 S10       30.00S HX  93
$$

OKZ018>020-024>031-211700-
CENTRAL OKLAHOMA

CITY           SKY/WX    TMP DP  RH WIND       PRES   REMARKS
OKLAHOMA CITY  MOSUNNY   92  67  43 S13       29.99F HX  95
OKC/WILEY POST SUNNY     93  70  46 SW15      29.99S HX  99
OKC/TINKER AFB SUNNY     91  70  49 S14       29.99F HX  96
STILLWATER     SUNNY     93  70  46 S10       29.97F HX  99
GUTHRIE        SUNNY     94  69  44 S10       29.97S HX  99
$$

OKZ008-013-054>072-211700-
NORTHEAST OKLAHOMA

CITY           SKY/WX    TMP DP  RH WIND       PRES   REMARKS
TULSA          SUNNY     92  72  51 S9        29.97F HX  99
TULSA/JONES    SUNNY     93  71  48 S10       29.98F HX 100
PONCA CITY     SUNNY     93  70  46 S8        29.95F HX  99
BARTLESVILLE   SUNNY     93  72  50 S13       29.98S HX 101
MUSKOGEE       SUNNY     90  74  59 S14G22    30.03R HX  99
$$

OKZ032-040>043-046>053-073>077-211700-
SOUTH CENTRAL/SOUTHEAST OKLAHOMA

CITY           SKY/WX    TMP DP  RH WIND       PRES   REMARKS
ARDMORE/DWNTWN SUNNY     90  68  48 SW10      30.01F HX  93
MCALESTER      SUNNY     92  75  57 SW13      30.02F HX 103
$$




USA.gov is the U.S. government's official web portal to all federal, state and local government web resources and services.